Powrót do katalogu

STARLINK-31000

AktywnyŁącznośćVLEO
NORAD 58488·PAYLOAD·🇺🇸 United States

Wystrzelony Dec 3, 2023 z Cape Canaveral Space Force Station

Loading…

Następne Przeloty (najbliższe 24 godziny)

TLE

ŚwieżeSource: CelesTrak SupGP

Epoka: Sep 14, 2026, 22:14 UTC

1 58488C 23186R   26257.92687500  .00034977  00000+0  12668-2 0  2573
2 58488  43.0018  74.9438 0001624 274.9053 222.7586 15.27562348    15

Śledź STARLINK-31000 w czasie rzeczywistym z AllMySat

Download on the App Store